CSAV Rio Maipo — A8GH5 — position and weather

sailwx.info

Track history (hours):
 
Tides and Currents Weather Stations Pressure Air Temp Water Temp Dewpoint Dewpoint Depression Visibility Wind Speed Wind Dir Waves Ship Positions

CSAV Rio Maipo

Last reported at 2014-Nov-23 01:33 UTC. Time now 2014-Nov-23 02:16 UTC.
Position N 31°17' E 121°49'.

Length 210.9 m; beam 32.3 m; draft 12 m.

Type: Cargo ship. MMSI: 636091292.

Date/timePositionNaut miles runAvg speedWind from/ knotsBaromVisibWave heightAir tempDewpointWater temp
2014-Nov-23 01:33N 31°17' E 121°49'9 9.4
2014-Nov-23 00:34N 31°20' E 121°39'0 0.0
2014-Nov-22 23:32N 31°20' E 121°39'0 0.0
2014-Nov-22 22:32N 31°20' E 121°39'0 0.0
2014-Nov-22 21:32N 31°20' E 121°39'0 0.1
2014-Nov-22 20:32N 31°20' E 121°39'0 0.0
2014-Nov-22 19:32N 31°20' E 121°39'0 0.1
2014-Nov-22 18:32N 31°20' E 121°39'0 0.0
2014-Nov-22 17:23N 31°20' E 121°39'0 0.0
2014-Nov-22 16:32N 31°20' E 121°39'0 0.0
2014-Nov-22 15:32N 31°20' E 121°39'0 0.0
2014-Nov-22 14:29N 31°20' E 121°39'0 0.1
2014-Nov-22 13:32N 31°20' E 121°39'0 0.0
2014-Nov-22 12:29N 31°20' E 121°39'0 0.1
2014-Nov-22 11:32N 31°20' E 121°39'0 0.0
2014-Nov-22 10:29N 31°20' E 121°39'0 0.0
2014-Nov-22 09:32N 31°20' E 121°39'0 0.0
2014-Nov-22 08:26N 31°20' E 121°39'0 0.1
2014-Nov-22 07:32N 31°20' E 121°39'0 0.0
2014-Nov-22 06:29N 31°20' E 121°39'0 0.0
2014-Nov-22 05:32N 31°20' E 121°39'0 0.1
2014-Nov-22 04:32N 31°20' E 121°39'0 0.0
2014-Nov-22 03:32N 31°20' E 121°39'0 0.1
2014-Nov-22 02:32N 31°20' E 121°39'0 0.1
2014-Nov-22 01:31N 31°20' E 121°39'0 0.0
2014-Nov-22 00:31N 31°20' E 121°39'0 0.1
2014-Nov-21 23:28N 31°20' E 121°39'0 0.0
2014-Nov-21 22:28N 31°20' E 121°39'0 0.0
2014-Nov-21 21:31N 31°20' E 121°39'0 0.0
2014-Nov-21 20:28N 31°20' E 121°39'0 0.1
2014-Nov-21 19:28N 31°20' E 121°39'0 0.0
2014-Nov-21 18:28N 31°20' E 121°39'0 0.0
2014-Nov-21 17:31N 31°20' E 121°39'0 0.0
2014-Nov-21 16:31N 31°20' E 121°39'0 0.0
2014-Nov-21 15:31N 31°20' E 121°39'1 0.9
2014-Nov-21 14:33N 31°21' E 121°39'4 3.8
2014-Nov-21 13:33N 31°20' E 121°43'1010.1
2014-Nov-21 12:33N 31°16' E 121°54'1212.0
2014-Nov-21 11:33N 31°13' E 122°07'1313.4
2014-Nov-21 10:34N 31°06' E 122°21'10 9.5
2014-Nov-21 09:33N 31°06' E 122°32'8611.9
2014-Nov-21 02:19N 29°42' E 122°49'1114.3
2014-Nov-21 01:33N 29°33' E 122°41'2114.3
2014-Nov-21 00:04N 29°12' E 122°38'33414.0
2014-Nov-20 00:09N 24°31' E 119°16'5814.3
2014-Nov-19 20:05N 23°50' E 118°31'814.4
2014-Nov-19 19:30N 23°44' E 118°24'25212.0
2014-Nov-18 22:33N 22°19' E 114°07'1 0.1
2014-Nov-18 00:26N 22°20' E 114°08'0 0.0
2014-Nov-17 22:20N 22°20' E 114°08'0 0.0
2014-Nov-17 15:12N 22°20' E 114°08'0 0.0
2014-Nov-17 14:12N 22°20' E 114°08'0 0.0
2014-Nov-17 12:12N 22°20' E 114°08'0 0.0
2014-Nov-17 11:24N 22°20' E 114°08'1 0.5
2014-Nov-17 09:31N 22°19' E 114°07'307 9.5
2014-Nov-16 01:10N 24°28' E 119°11'1013.3
2014-Nov-16 00:26N 24°34' E 119°19'32812.7
2014-Nov-14 22:31N 29°11' E 122°38'119 9.9
2014-Nov-14 10:32N 31°08' E 122°16'1414.7
2014-Nov-14 09:33N 31°15' E 122°01'1414.3
2014-Nov-14 08:34N 31°19' E 121°45'9 9.2
2014-Nov-14 07:34N 31°22' E 121°35'0 0.0
2014-Nov-14 06:33N 31°22' E 121°35'0 0.0
2014-Nov-14 05:33N 31°22' E 121°35'0 0.0
2014-Nov-14 04:27N 31°22' E 121°35'0 0.0
2014-Nov-14 03:30N 31°22' E 121°35'0 0.0
2014-Nov-14 02:30N 31°22' E 121°35'0 0.0
2014-Nov-14 01:33N 31°22' E 121°35'0 0.0
2014-Nov-14 00:33N 31°22' E 121°35'0 0.0
2014-Nov-13 23:33N 31°22' E 121°35'0 0.0
2014-Nov-13 22:33N 31°22' E 121°35'0 0.0
2014-Nov-13 21:33N 31°22' E 121°35'0 0.0
2014-Nov-13 20:33N 31°22' E 121°35'0 0.0
2014-Nov-13 19:33N 31°22' E 121°35'0 0.0
2014-Nov-13 18:33N 31°22' E 121°35'0 0.0
2014-Nov-13 17:33N 31°22' E 121°35'0 0.0
2014-Nov-13 16:24N 31°22' E 121°35'0 0.0
2014-Nov-13 15:33N 31°22' E 121°35'0 0.0
2014-Nov-13 14:33N 31°22' E 121°35'0 0.0
2014-Nov-13 13:33N 31°22' E 121°35'0 0.0
2014-Nov-13 12:30N 31°22' E 121°35'0 0.0
2014-Nov-13 11:33N 31°22' E 121°35'0 0.0
2014-Nov-13 10:33N 31°22' E 121°35'0 0.0
2014-Nov-13 09:33N 31°22' E 121°35'0 0.0
2014-Nov-13 08:30N 31°22' E 121°35'0 0.0
2014-Nov-13 06:24N 31°22' E 121°35'5 6.0
2014-Nov-13 05:33N 31°21' E 121°40'1110.9
2014-Nov-13 04:33N 31°16' E 121°52'  
Track history (hours):
 
Tides and Currents Weather Stations Pressure Air Temp Water Temp Dewpoint Dewpoint Depression Visibility Wind Speed Wind Dir Waves Ship Positions

CSAV Rio Maipo

Last reported at 2014-Nov-23 01:33 UTC. Time now 2014-Nov-23 02:16 UTC.
Position N 31°17' E 121°49'.

Length 210.9 m; beam 32.3 m; draft 12 m.

Type: Cargo ship. MMSI: 636091292.

Date/timePositionNaut miles runAvg speedWind from/ knotsBaromVisibWave heightAir tempDewpointWater temp
2014-Nov-23 01:33N 31°17' E 121°49'9 9.4
2014-Nov-23 00:34N 31°20' E 121°39'0 0.0
2014-Nov-22 23:32N 31°20' E 121°39'0 0.0
2014-Nov-22 22:32N 31°20' E 121°39'0 0.0
2014-Nov-22 21:32N 31°20' E 121°39'0 0.1
2014-Nov-22 20:32N 31°20' E 121°39'0 0.0
2014-Nov-22 19:32N 31°20' E 121°39'0 0.1
2014-Nov-22 18:32N 31°20' E 121°39'0 0.0
2014-Nov-22 17:23N 31°20' E 121°39'0 0.0
2014-Nov-22 16:32N 31°20' E 121°39'0 0.0
2014-Nov-22 15:32N 31°20' E 121°39'0 0.0
2014-Nov-22 14:29N 31°20' E 121°39'0 0.1
2014-Nov-22 13:32N 31°20' E 121°39'0 0.0
2014-Nov-22 12:29N 31°20' E 121°39'0 0.1
2014-Nov-22 11:32N 31°20' E 121°39'0 0.0
2014-Nov-22 10:29N 31°20' E 121°39'0 0.0
2014-Nov-22 09:32N 31°20' E 121°39'0 0.0
2014-Nov-22 08:26N 31°20' E 121°39'0 0.1
2014-Nov-22 07:32N 31°20' E 121°39'0 0.0
2014-Nov-22 06:29N 31°20' E 121°39'0 0.0
2014-Nov-22 05:32N 31°20' E 121°39'0 0.1
2014-Nov-22 04:32N 31°20' E 121°39'0 0.0
2014-Nov-22 03:32N 31°20' E 121°39'0 0.1
2014-Nov-22 02:32N 31°20' E 121°39'0 0.1
2014-Nov-22 01:31N 31°20' E 121°39'0 0.0
2014-Nov-22 00:31N 31°20' E 121°39'0 0.1
2014-Nov-21 23:28N 31°20' E 121°39'0 0.0
2014-Nov-21 22:28N 31°20' E 121°39'0 0.0
2014-Nov-21 21:31N 31°20' E 121°39'0 0.0
2014-Nov-21 20:28N 31°20' E 121°39'0 0.1
2014-Nov-21 19:28N 31°20' E 121°39'0 0.0
2014-Nov-21 18:28N 31°20' E 121°39'0 0.0
2014-Nov-21 17:31N 31°20' E 121°39'0 0.0
2014-Nov-21 16:31N 31°20' E 121°39'0 0.0
2014-Nov-21 15:31N 31°20' E 121°39'1 0.9
2014-Nov-21 14:33N 31°21' E 121°39'4 3.8
2014-Nov-21 13:33N 31°20' E 121°43'1010.1
2014-Nov-21 12:33N 31°16' E 121°54'1212.0
2014-Nov-21 11:33N 31°13' E 122°07'1313.4
2014-Nov-21 10:34N 31°06' E 122°21'10 9.5
2014-Nov-21 09:33N 31°06' E 122°32'8611.9
2014-Nov-21 02:19N 29°42' E 122°49'1114.3
2014-Nov-21 01:33N 29°33' E 122°41'2114.3
2014-Nov-21 00:04N 29°12' E 122°38'33414.0
2014-Nov-20 00:09N 24°31' E 119°16'5814.3
2014-Nov-19 20:05N 23°50' E 118°31'814.4
2014-Nov-19 19:30N 23°44' E 118°24'25212.0
2014-Nov-18 22:33N 22°19' E 114°07'1 0.1
2014-Nov-18 00:26N 22°20' E 114°08'0 0.0
2014-Nov-17 22:20N 22°20' E 114°08'0 0.0
2014-Nov-17 15:12N 22°20' E 114°08'0 0.0
2014-Nov-17 14:12N 22°20' E 114°08'0 0.0
2014-Nov-17 12:12N 22°20' E 114°08'0 0.0
2014-Nov-17 11:24N 22°20' E 114°08'1 0.5
2014-Nov-17 09:31N 22°19' E 114°07'307 9.5
2014-Nov-16 01:10N 24°28' E 119°11'1013.3
2014-Nov-16 00:26N 24°34' E 119°19'32812.7
2014-Nov-14 22:31N 29°11' E 122°38'119 9.9
2014-Nov-14 10:32N 31°08' E 122°16'1414.7
2014-Nov-14 09:33N 31°15' E 122°01'1414.3
2014-Nov-14 08:34N 31°19' E 121°45'9 9.2
2014-Nov-14 07:34N 31°22' E 121°35'0 0.0
2014-Nov-14 06:33N 31°22' E 121°35'0 0.0
2014-Nov-14 05:33N 31°22' E 121°35'0 0.0
2014-Nov-14 04:27N 31°22' E 121°35'0 0.0
2014-Nov-14 03:30N 31°22' E 121°35'0 0.0
2014-Nov-14 02:30N 31°22' E 121°35'0 0.0
2014-Nov-14 01:33N 31°22' E 121°35'0 0.0
2014-Nov-14 00:33N 31°22' E 121°35'0 0.0
2014-Nov-13 23:33N 31°22' E 121°35'0 0.0
2014-Nov-13 22:33N 31°22' E 121°35'0 0.0
2014-Nov-13 21:33N 31°22' E 121°35'0 0.0
2014-Nov-13 20:33N 31°22' E 121°35'0 0.0
2014-Nov-13 19:33N 31°22' E 121°35'0 0.0
2014-Nov-13 18:33N 31°22' E 121°35'0 0.0
2014-Nov-13 17:33N 31°22' E 121°35'0 0.0
2014-Nov-13 16:24N 31°22' E 121°35'0 0.0
2014-Nov-13 15:33N 31°22' E 121°35'0 0.0
2014-Nov-13 14:33N 31°22' E 121°35'0 0.0
2014-Nov-13 13:33N 31°22' E 121°35'0 0.0
2014-Nov-13 12:30N 31°22' E 121°35'0 0.0
2014-Nov-13 11:33N 31°22' E 121°35'0 0.0
2014-Nov-13 10:33N 31°22' E 121°35'0 0.0
2014-Nov-13 09:33N 31°22' E 121°35'0 0.0
2014-Nov-13 08:30N 31°22' E 121°35'0 0.0
2014-Nov-13 06:24N 31°22' E 121°35'5 6.0
2014-Nov-13 05:33N 31°21' E 121°40'1110.9
2014-Nov-13 04:33N 31°16' E 121°52'  

Dump ship's entire track history